Martin State Airport
KMTN : now visible

Airfield :











YOU CAN JOIN US ON...

 
LOGIN :

Register | Disclaimer

   EN    FR    IT 

 









Legend :    VFR   Marginal VFR   IFR   Intensive IFR   Very Intensive IFR
Visi :
Ceiling :
>= 8 km
>= 3000ft
5 to 8 km
1000 to 3000 ft
1500m to 5 km
500 to 1000 ft
800 to 1500m
200 to 500 ft
< 800m
< 200 ft
Symbols :   Thunderstorms  Fog  Heavy snow  Heavy precipitations  Wind > 20 kt






- Airport Elevation : 21 ft


KMTN - Martin State

CURRENT METAR :
  • 171755Z 15003KT 10SM CLR 22/08 A3033

EXPIRED METARs :
  • 171654Z 16003KT 10SM FEW045 21/10 A3033
  • 171554Z 15004KT 10SM FEW045 21/12 A3034

TAF KMTN
Valid from the 17 at 18:00 until the 18 at 18:00 UTC


171724Z 1718/1818 15005KT P6SM FEW050 BKN250
FM180300 18004KT P6SM SCT250
FM180800 00000KT P6SM SCT050 SCT250
FM181400 22004KT P6SM FEW250 AMD NOT SKED
KZDC FIR / North America



MET'MAP, your aeronautical weather chart ! - Copyright ORBIFLY December 2007 - Disclaimer

ORBIFLY MET'MAP TEAM :

Programming & Development : Alexandra Zaïnal
Concept & original design : Baudouin d'Aumeries
Assistance for programming : Marc-Olivier Méhu
Technical & hardware support : Manuel Goepfert

Contact : metmap@orbifly.com




SOURCES & CREDITS :

   NOAA       Earth
Advisory